Terminal Aerodrome Forecast
Issued by NWS Portland, OR

Home | Current Version | Previous Version | Text Only | Print | Product List | Glossary On
Versions: 1 2 3 4 5 6 7 8 9 10 11 12 13 14 15 16 17 18 19 20 21 22 23 24 25 26 27 28 29 30 31 32 33 34 35 36 37 38 39 40 41 42 43 44 45 46 47 48 49 50
000
FTUS46 KPQR 161129
TAFPDX
TAF
KPDX 161129Z 1612/1712 12005KT P6SM VCSH BKN035 OVC100
     FM161300 13006KT P6SM -SHRA SCT020 OVC035
     FM161900 10007KT P6SM SCT020 BKN100
     FM170000 11006KT P6SM SCT030 BKN250
     FM171000 12004KT P6SM BKN050=

USA.gov is the U.S. government's official web portal to all federal, state and local government web resources and services.